Tracking 20721 objects as of 1-Jun-2020
HD Live streaming from Space Station
objects crossing your sky now

IRIDIUM 33 DEB

Track IRIDIUM 33 DEB now!
10-day predictions


NORAD ID: 36566
Int'l Code: 1997-051WV
Perigee: 724.9 km
Apogee: 961.3 km
Inclination: 86.4 °
Period: 101.6 minutes
Semi major axis: 7214 km
RCS: 0.0106 m2 (small)
Launch date: September 14, 1997
Source: United States (US)
Launch site: TYURATAM MISSILE AND SPACE COMPLEX (TTMTR)

Note: This is SATELLITE DEBRIS
aabbcc
Your satellite tracking list
Your tracking list is empty




NASA's NSSDC Master Catalog

Two Line Element Set (TLE):
1 36566U 97051WV  20150.17114957 +.00003090 +00000-0 +13452-2 0  9990
2 36566 086.4273 299.2304 0163850 249.7641 108.5864 14.16857481558020
Source of the keplerian elements: AFSPC